Regional Weather Roundup
Issued by NWS Portland, ME

Current Version | Previous Version | Graphics & Text | Print | Product List | Glossary On
Versions: 1 2 3 4 5 6 7 8 9 10 11 12 13 14 15 16 17 18 19 20 21 22 23 24 25 26 27 28 29 30 31 32 33 34 35 36 37 38 39 40 41 42 43 44 45 46 47 48 49 50
000
ASUS41 KGYX 190010
RWRGYX
WEATHER ROUNDUP FOR MAINE AND NEW HAMPSHIRE
NATIONAL WEATHER SERVICE GRAY ME
800 PM EDT FRI AUG 18 2017

MEZ002-005-006-010-012-015-018-020-021-024-026-027-029-190100-
MAINE

CITY           SKY/WX    TMP DP  RH WIND       PRES   REMARKS
PORTLAND       LGT RAIN  66  65  96 VRB5      29.85F FOG
6HR MIN TEMP:  62; 6HR MAX TEMP:  66; 6HR PCP:  0.90;

SANFORD        HVY RAIN  64  63  96 N7        29.84F
BAR HARBOR     LGT RAIN  58  57  97 SE5       29.97R
WISCASSET      LGT RAIN  61  60  97 E5        29.90S FOG
6HR MIN TEMP:  61; 6HR MAX TEMP:  64; 6HR PCP:  0.29;

ROCKLAND       LGT RAIN  58  57  97 E8        29.92S
FRYEBURG       CLOUDY    61  61 100 N5        29.89R FOG
6HR MIN TEMP:  59; 6HR MAX TEMP:  61; 6HR PCP:  0.36;

LEWISTONAUBURN RAIN      60  59  96 NE3       29.88F
AUGUSTA        LGT RAIN  59  58  96 E5        29.91S FOG
6HR MIN TEMP:  59; 6HR MAX TEMP:  61; 6HR PCP:  0.23;

WATERVILLE     LGT RAIN  60  59  96 CALM      29.89S FOG
BANGOR         LGT RAIN  62  59  90 SE9G22    29.94S FOG
6HR MIN TEMP:  62; 6HR MAX TEMP:  66; 6HR PCP:  0.14;

GREENVILLE       N/A     57  57 100 SE13G21   29.90S
6HR MIN TEMP:  56; 6HR MAX TEMP:  57; 6HR PCP:  0.13;

MILLINOCKET    LGT RAIN  59  59 100 E5        29.96S FOG
6HR MIN TEMP:  59; 6HR MAX TEMP:  65; 6HR PCP:  0.05;

HOULTON        CLOUDY    60  59  96 SE5       29.95F
6HR MIN TEMP:  60; 6HR MAX TEMP:  72; 6HR PCP:  0.03;

PRESQUE ISLE   LGT RAIN  60  58  92 SE8       29.97S
6HR MIN TEMP:  60; 6HR MAX TEMP:  72; 6HR PCP:  0.01;

FRENCHVILLE    LGT RAIN  60  52  74 S12G20    29.94S
6HR MIN TEMP:  60; 6HR MAX TEMP:  70; 6HR PCP: TRACE;

CARIBOU        LGT RAIN  60  56  86 S7        29.95F
6HR MIN TEMP:  60; 6HR MAX TEMP:  71; 6HR PCP:  0.02;

$$

NHZ002-005-008-009-011-012-014-190100-
NEW HAMPSHIRE

CITY           SKY/WX    TMP DP  RH WIND       PRES   REMARKS
PORTSMOUTH     LGT RAIN  69  68  96 SE6       29.80F FOG
ROCHESTER      RAIN      64  62  93 NE5       29.82F FOG
6HR MIN TEMP:  64; 6HR MAX TEMP:  67; 6HR PCP:  0.65;

NASHUA         LGT RAIN  74  74 100 SE5       29.79F FOG
MANCHESTER     LGT RAIN  69  66  90 NW9       29.81R VSB 1
6HR MIN TEMP:  69; 6HR MAX TEMP:  71; 6HR PCP:  0.80;

CONCORD        RAIN      64  63  96 NW3       29.83R FOG
LACONIA        RAIN      62  61  96 NE8       29.85S
PLYMOUTH       CLOUDY    62  60  93 CALM      29.85S
BERLIN         CLOUDY    64  57  78 S5        29.88R
6HR MIN TEMP:  64; 6HR MAX TEMP:  67; 6HR PCP:  0.02;

WHITEFIELD     CLOUDY    65  59  81 CALM      29.84R
6HR MIN TEMP:  65; 6HR MAX TEMP:  72; 6HR PCP: TRACE;

JAFFREY        CLOUDY    66  66 100 VRB5      29.83S
6HR MIN TEMP:  66; 6HR MAX TEMP:  75; 6HR PCP:  0.09;

KEENE            N/A    N/A N/A N/A MISG        N/A
LEBANON        CLOUDY    67  64  90 NE5       29.81S
6HR MIN TEMP:  65; 6HR MAX TEMP:  68; 6HR PCP:  0.18;

MT WASHINGTON  FOG       54  54 100 SW28        N/A  VSB 1/8
6HR MIN TEMP:  49; 6HR MAX TEMP:  55; 6HR PCP:  0.04;

$$

VTZ005-007-008-190100-
VERMONT

CITY           SKY/WX    TMP DP  RH WIND       PRES   REMARKS
ST JOHNSBURY     N/A     65  65 100 MISG      29.80S
MONTPELIER     CLOUDY    66  66 100 S7        29.85S
BURLINGTON     MOCLDY    77  71  82 S12G20    29.72S
$$

MAZ007-012-024-CTZ003-RIZ002-NYZ038-NYZ072-190100-
SOUTHERN NEW ENGLAND AND NY

CITY           SKY/WX    TMP DP  RH WIND       PRES   REMARKS
BOSTON         LGT RAIN  74  73  97 S14       29.81F
WORCESTER      CLOUDY    73  71  93 S10       29.82F
NANTUCKET      CLOUDY    70  69  97 S14       29.91R
NEW YORK CITY  TSTM      79  73  82 W6        29.79S
$$

ANZ081-ANZ082-ANZ150-NHZ014-MEZ023>029-190100-
COASTAL MARINE OBSERVATIONS

STATION/POSITION TIME  TEMP    WIND        PRES    WAVE
                       AIR SEA DIR/SP/G            HT/PER
                 (UTC) (F)     (DEG/KT/KT) (MB)    (FT/S)
MOUNT DESERT ROC 0000   59                 1014.4R
MATINICUS ROCK   2300   58     120/ 28/ 30 1012.0F
ISLE OF SHOALS   2300   68     160/ 22/ 22 1009.2F
JEFFREYS LEDGE   2306      64                N/A     4/ 5
CASHES LEDGE BUO 2350   65 68              1011.3F   3/ 4
GEORGES BANK BUO 2250   68 65              1015.6    2/ 8
$$

.............KEY..............
   WCI - WIND CHILL
   TC  - TEMPERATURE IN CELSIUS
   VSB - VISIBILITY IN MILES
   HX  - HEAT INDEX
   FAIR- INDICATES FEW OR NO CLOUDS BELOW 12,000 FT, WITH NO
         SIGNIFICANT WEATHER AND/OR OBSTRUCTIONS TO VISIBILITY.





USA.gov is the U.S. government's official web portal to all federal, state and local government web resources and services.